User: anonymous   Login
Location: Unspecified
(0.0000°N, 0.0000°E)
Time: 00:48:06
(UTC+00:00)
Language:

STARLINK-31146 - Orbit

View from above orbital plane
View from above orbital plane
View from above satellite
View from above satellite

Ground track
Ground track

The orbit is defined by the following mean orbital elements,

1 58769U          26145.05827719 +.00000000 +00000-0 +23242-4 0 00002
2 58769  53.1611  18.8809 0001376  76.2440 283.8714 15.30184925    09
Epoch (UTC): 25 May 2026 01:23:55
Eccentricity: 0.0001376
inclination: 53.1611°
perigee height: 474 km
apogee height: 476 km
right ascension of ascending node: 18.8809°
argument of perigee: 76.2440°
revolutions per day: 15.30184925
mean anomaly at epoch: 283.8714°

The dashed part of the orbit path shows where the satellite is in the earth's shadow,  

DLR